When you browse on this site, cookies collect data to enhance your experience and personalize the content and advertising you see.
Visit our Privacy Policy to learn more. By continuing to use the site, you agree to this use of cookies and data.
  • In Austria
  • List of Countries
  • For 7 days
  • Water Temperature
  • Weather Map
  • News
  • Weather Widgets
  • user-avatar
    Login

    Hourly Weather Tepeji de Ocampo

    Today, 14 November, Thursday

    Time Temperature Precipitation Wind Pressure Humidity
    00:00 +14°C° 0 mm 1 mps 588 mmHg 75%
    01:00 +13°C° 0 mm 1 mps 588 mmHg 76%
    02:00 +13°C° 0 mm 1 mps 588 mmHg 77%
    03:00 +13°C° 0 mm 1 mps 588 mmHg 78%
    04:00 +13°C° 0 mm 1 mps 588 mmHg 79%
    05:00 +12°C° 0 mm 1 mps 588 mmHg 80%
    06:00 +14°C° 0 mm 1 mps 589 mmHg 75%
    07:00 +15°C° 0 mm 1 mps 590 mmHg 70%
    08:00 +16°C° 0 mm 1 mps 591 mmHg 64%
    09:00 +19°C° 0 mm 1 mps 591 mmHg 58%
    10:00 +20°C° 0 mm 1 mps 591 mmHg 51%
    11:00 +22°C° 0 mm 1 mps 592 mmHg 45%
    12:00 +22°C° 0.1 mm 1 mps 591 mmHg 45%
    13:00 +21°C° 0.1 mm 2 mps 591 mmHg 46%
    14:00 +21°C° 0.1 mm 2 mps 590 mmHg 47%
    15:00 +20°C° 0.2 mm 2 mps 590 mmHg 53%
    16:00 +19°C° 0.2 mm 2 mps 590 mmHg 60%
    17:00 +18°C° 0.2 mm 2 mps 590 mmHg 66%
    18:00 +17°C° 0.5 mm 2 mps 590 mmHg 71%
    19:00 +16°C° 0.5 mm 2 mps 590 mmHg 75%
    20:00 +16°C° 0.5 mm 2 mps 591 mmHg 79%
    21:00 +15°C° 0.1 mm 2 mps 591 mmHg 83%
    22:00 +14°C° 0.1 mm 2 mps 590 mmHg 87%
    23:00 +13°C° 0.1 mm 2 mps 590 mmHg 91%

    Tomorrow, 15 November, Friday

    Time Temperature Precipitation Wind Pressure Humidity
    00:00 +13°C° 0.1 mm 2 mps 590 mmHg 90%
    01:00 +13°C° 0.1 mm 2 mps 590 mmHg 90%
    02:00 +13°C° 0.1 mm 2 mps 589 mmHg 90%
    03:00 +13°C° 0.1 mm 1 mps 590 mmHg 90%
    04:00 +13°C° 0.1 mm 1 mps 590 mmHg 90%
    05:00 +13°C° 0.1 mm 1 mps 590 mmHg 90%
    06:00 +13°C° 0.1 mm 1 mps 590 mmHg 90%
    07:00 +13°C° 0.1 mm 1 mps 591 mmHg 90%
    08:00 +13°C° 0.1 mm 1 mps 591 mmHg 90%
    09:00 +14°C° 0 mm 2 mps 591 mmHg 86%
    10:00 +14°C° 0 mm 2 mps 591 mmHg 82%
    11:00 +15°C° 0 mm 2 mps 591 mmHg 79%
    12:00 +16°C° 0 mm 2 mps 591 mmHg 76%
    13:00 +16°C° 0 mm 2 mps 591 mmHg 73%
    14:00 +17°C° 0 mm 3 mps 590 mmHg 70%
    15:00 +16°C° 0 mm 3 mps 590 mmHg 74%
    16:00 +14°C° 0 mm 3 mps 590 mmHg 78%
    17:00 +13°C° 0 mm 3 mps 589 mmHg 82%
    18:00 +13°C° 0 mm 2 mps 590 mmHg 84%
    19:00 +13°C° 0 mm 2 mps 590 mmHg 86%
    20:00 +12°C° 0 mm 2 mps 590 mmHg 88%
    21:00 +12°C° 0 mm 1 mps 590 mmHg 88%
    22:00 +12°C° 0 mm 1 mps 590 mmHg 88%
    23:00 +12°C° 0 mm 1 mps 590 mmHg 87%

    Day after tomorrow, 16 November, Saturday

    Time Temperature Precipitation Wind Pressure Humidity
    00:00 +12°C° 0 mm 1 mps 589 mmHg 88%
    01:00 +12°C° 0 mm 1 mps 589 mmHg 89%
    02:00 +12°C° 0 mm 1 mps 588 mmHg 89%
    03:00 +11°C° 0 mm 0 mps 588 mmHg 90%
    04:00 +10°C° 0 mm 0 mps 588 mmHg 91%
    05:00 +10°C° 0 mm 0 mps 588 mmHg 92%
    06:00 +11°C° 0 mm 0 mps 589 mmHg 87%
    07:00 +12°C° 0 mm 0 mps 590 mmHg 82%
    08:00 +14°C° 0 mm 0 mps 591 mmHg 77%
    09:00 +15°C° 0 mm 0 mps 591 mmHg 69%
    10:00 +19°C° 0 mm 1 mps 591 mmHg 62%
    11:00 +21°C° 0 mm 1 mps 592 mmHg 55%
    12:00 +20°C° 0.1 mm 2 mps 591 mmHg 53%
    13:00 +21°C° 0.1 mm 2 mps 591 mmHg 52%
    14:00 +21°C° 0.1 mm 3 mps 590 mmHg 51%
    15:00 +20°C° 0.1 mm 3 mps 590 mmHg 57%
    16:00 +19°C° 0.1 mm 3 mps 589 mmHg 63%
    17:00 +18°C° 0.1 mm 3 mps 589 mmHg 69%
    18:00 +17°C° 0.1 mm 2 mps 589 mmHg 73%
    19:00 +16°C° 0.1 mm 2 mps 589 mmHg 76%
    20:00 +16°C° 0.1 mm 1 mps 590 mmHg 80%
    21:00 +16°C° 0.1 mm 1 mps 589 mmHg 82%
    22:00 +15°C° 0.1 mm 1 mps 589 mmHg 84%
    23:00 +14°C° 0.1 mm 0 mps 589 mmHg 86%

    17 November, Sunday

    Time Temperature Precipitation Wind Pressure Humidity
    00:00 +14°C° 0.2 mm 0 mps 589 mmHg 87%
    01:00 +13°C° 0.2 mm 0 mps 588 mmHg 88%
    02:00 +13°C° 0.2 mm 0 mps 588 mmHg 89%
    03:00 +13°C° 0 mm 0 mps 588 mmHg 88%
    04:00 +13°C° 0 mm 0 mps 588 mmHg 88%
    05:00 +13°C° 0 mm 0 mps 588 mmHg 88%
    06:00 +14°C° 0 mm 0 mps 588 mmHg 83%
    07:00 +15°C° 0 mm 0 mps 589 mmHg 77%
    08:00 +18°C° 0 mm 1 mps 590 mmHg 72%
    09:00 +19°C° 0 mm 1 mps 590 mmHg 65%
    10:00 +20°C° 0 mm 2 mps 590 mmHg 58%
    11:00 +21°C° 0 mm 3 mps 590 mmHg 52%
    12:00 +21°C° 0.1 mm 3 mps 589 mmHg 52%
    13:00 +21°C° 0.1 mm 3 mps 589 mmHg 51%
    14:00 +21°C° 0.1 mm 4 mps 588 mmHg 51%
    15:00 +20°C° 0.2 mm 3 mps 588 mmHg 57%
    16:00 +19°C° 0.2 mm 3 mps 588 mmHg 63%
    17:00 +18°C° 0.2 mm 2 mps 588 mmHg 68%
    18:00 +17°C° 0.1 mm 2 mps 588 mmHg 72%
    19:00 +17°C° 0.1 mm 2 mps 588 mmHg 76%
    20:00 +16°C° 0.1 mm 1 mps 589 mmHg 80%
    21:00 +15°C° 0 mm 1 mps 588 mmHg 82%
    22:00 +15°C° 0 mm 1 mps 588 mmHg 84%
    23:00 +13°C° 0 mm 0 mps 588 mmHg 86%

    18 November, Monday

    Time Temperature Precipitation Wind Pressure Humidity
    00:00 +13°C° 0 mm 0 mps 588 mmHg 86%
    01:00 +12°C° 0 mm 0 mps 587 mmHg 87%
    02:00 +12°C° 0 mm 0 mps 587 mmHg 88%
    03:00 +12°C° 0 mm 0 mps 586 mmHg 88%
    04:00 +11°C° 0 mm 0 mps 586 mmHg 89%
    05:00 +11°C° 0 mm 0 mps 586 mmHg 90%
    06:00 +12°C° 0 mm 0 mps 587 mmHg 85%
    07:00 +14°C° 0 mm 0 mps 588 mmHg 79%
    08:00 +15°C° 0 mm 0 mps 589 mmHg 74%
    09:00 +18°C° 0 mm 1 mps 589 mmHg 68%
    10:00 +20°C° 0 mm 1 mps 589 mmHg 62%
    11:00 +20°C° 0 mm 2 mps 589 mmHg 56%
    12:00 +20°C° 0.3 mm 2 mps 589 mmHg 56%
    13:00 +20°C° 0.3 mm 3 mps 588 mmHg 55%
    14:00 +20°C° 0.3 mm 3 mps 588 mmHg 55%
    15:00 +20°C° 0.1 mm 3 mps 587 mmHg 59%
    16:00 +19°C° 0.1 mm 3 mps 587 mmHg 63%
    17:00 +18°C° 0.1 mm 2 mps 587 mmHg 66%
    18:00 +17°C° 0 mm 2 mps 587 mmHg 71%
    19:00 +16°C° 0 mm 1 mps 587 mmHg 76%
    20:00 +15°C° 0 mm 1 mps 587 mmHg 81%
    21:00 +14°C° 0 mm 1 mps 587 mmHg 83%
    22:00 +14°C° 0 mm 1 mps 587 mmHg 85%
    23:00 +13°C° 0 mm 0 mps 587 mmHg 87%

    19 November, Tuesday

    Time Temperature Precipitation Wind Pressure Humidity
    00:00 +12°C° 0 mm 0 mps 587 mmHg 87%
    01:00 +12°C° 0 mm 0 mps 586 mmHg 88%
    02:00 +12°C° 0 mm 0 mps 586 mmHg 88%
    03:00 +12°C° 0 mm 0 mps 586 mmHg 87%
    04:00 +12°C° 0 mm 0 mps 587 mmHg 87%
    05:00 +12°C° 0 mm 0 mps 587 mmHg 86%
    06:00 +13°C° 0 mm 0 mps 588 mmHg 82%
    07:00 +15°C° 0 mm 1 mps 588 mmHg 77%
    08:00 +16°C° 0 mm 1 mps 589 mmHg 73%
    09:00 +17°C° 0.1 mm 2 mps 589 mmHg 67%
    10:00 +18°C° 0.1 mm 2 mps 590 mmHg 61%
    11:00 +19°C° 0.1 mm 3 mps 590 mmHg 55%
    12:00 +19°C° 0.1 mm 3 mps 589 mmHg 55%
    13:00 +19°C° 0.1 mm 4 mps 589 mmHg 55%
    14:00 +19°C° 0.1 mm 4 mps 588 mmHg 55%
    15:00 +18°C° 0 mm 4 mps 588 mmHg 59%
    16:00 +17°C° 0 mm 4 mps 588 mmHg 63%
    17:00 +14°C° 0 mm 3 mps 588 mmHg 67%
    18:00 +13°C° 0 mm 3 mps 588 mmHg 70%
    19:00 +13°C° 0 mm 2 mps 588 mmHg 74%
    20:00 +12°C° 0 mm 1 mps 588 mmHg 77%
    21:00 +12°C° 0 mm 1 mps 588 mmHg 79%
    22:00 +12°C° 0 mm 1 mps 588 mmHg 80%
    23:00 +10°C° 0 mm 0 mps 588 mmHg 81%
    Show more